Location: Mohawk View
(42.7837°N, 73.7885°W)
Time: 12:44:55
(UTC+00:00)

Terra - Pass Details

Date: 17 June 2021
Orbit: 701 x 703 km, 98.2° (Epoch: 27 July)

Event Time Altitude Azimuth Distance (km) Brightness Sun altitude
Exits shadow 03:41:20 23° 229° (SW) 1,494 3.3 -21.6°
Maximum altitude 03:43:06 29° 264° (W) 1,292 3.3 -21.7°
Drops below altitude 10° 03:47:14 10° 324° (NW) 2,179 5.4 -22.0°
Sets 03:49:47 0° 336° (NNW) 3,102 6.6 -22.1°
